Flag for Japan Weather past 2 weeks in Sapporo, Japan

Now
74 °F

Passing clouds.


Feels Like: 74 °F
Forecast: 62 / 84 °F
Wind: 5 mph from North

Location: Sapporo

Current Time: Aug 1, 2014 at 9:55:08 PM

Latest Report: Aug 1, 2014 at 9:00 PM


Visibility: 6 mi

Pressure: 29.79 "Hg

Humidity: 85%

Dew point: 69 °F

Location of SapporoLocation

Historic Weather in Sapporo — Graph

°F

Sapporo temperature yesterday

Maximum temperature yesterday: 86 °F (at 12:00 PM)
Minimum temperature yesterday: 72 °F (at 4:00 AM)
Average temperature yesterday: 79 °F

Past Weeks' High & Low Weather Summary

 TemperatureHumidityPressure
High89 °F (Jul 30, 4:00 PM)94% (Jul 26, 3:00 PM)30.06 "Hg (Jul 26, 3:00 PM)
Low62 °F (Jul 29, 5:00 AM)29% (Jul 25, 2:00 PM)29.32 "Hg (Jul 27, 1:00 PM)
Average74 °F67%29.79 "Hg
* Reported Jul 17 8:00 PM — Aug 1 8:00 PM, Sapporo, Weather by CustomWeather, © 2014

Note: Actual official high and low records may vary slightly from our data, if they occured in-between our weather recording intervals... More about our weather records

Advertising

Sapporo weather history for previous 24 hours

 ConditionsComfort  
Time TempWeatherWind HumidityBarometerVisibility
8:00 PM
Aug 1
75 °FMild.6 mph84%29.79 "HgN/A
7:00 PM77 °FMild.8 mph75%29.76 "HgN/A
6:00 PM78 °FPassing clouds.10 mph68%29.76 "Hg9 mi
5:00 PM80 °FWarm.10 mph70%29.75 "HgN/A
4:00 PM81 °FWarm.7 mph65%29.75 "HgN/A
3:00 PM82 °FPartly sunny.10 mph61%29.75 "Hg6 mi
2:00 PM82 °FWarm.13 mph60%29.75 "HgN/A
1:00 PM83 °FWarm.16 mph57%29.74 "HgN/A
12:00 PM87 °FScattered clouds.10 mph49%29.73 "Hg12 mi
11:00 AM87 °FWarm.5 mph49%29.73 "HgN/A
10:00 AM85 °FWarm.2 mph46%29.73 "HgN/A
9:00 AM83 °FPassing clouds.1 mph54%29.73 "Hg9 mi
8:00 AM79 °FWarm.3 mph61%29.74 "HgN/A
7:00 AM76 °FMild.1 mph72%29.74 "HgN/A
6:00 AM73 °FSunny.3 mph75%29.74 "Hg6 mi
5:00 AM72 °FMild.1 mph79%29.75 "HgN/A
4:00 AM73 °FMild.2 mph76%29.74 "HgN/A
3:00 AM74 °FClear.5 mph78%29.73 "Hg6 mi
2:00 AM73 °FMild.5 mph78%29.74 "HgN/A
1:00 AM74 °FMild.9 mph76%29.73 "HgN/A
12:00 AM75 °FMild.8 mph75%29.74 "HgN/A
11:00 PM
Jul 31
78 °FWarm.6 mph69%29.75 "HgN/A
10:00 PM80 °FWarm.10 mph62%29.75 "HgN/A
9:00 PM80 °FOvercast.8 mph60%29.76 "Hg6 mi
Weather by CustomWeather, © 2014

See weather overviewHow to use our weather pages